This demonstration page uses our WeatherBlox Daily Observations layout. Learn more.

40.92945, -100.16068

Hourly Observations for December 31, 2019

Temp ( °F °C ) Dew Point ( °F °C ) Humidity (%) Winds ( mph kmh ) Pressure ( in mb ) Visibility ( mi km ) Precip ( " mm )
12:15 am 00:15 Clear 22 -5.5 14 -9.8 72 72 WNW 18 30 30.17 1022 10 16.0934 0 0
12:35 am 00:35 Clear 21 -6.1 14 -10 74 74 WNW 14 22 30.18 1022 10 16.0934 0 0
12:55 am 00:55 Clear 20 -6.6 13 -10.3 75 75 WNW 14 22 30.18 1022 10 16.0934 0 0
1:15 am 01:15 Clear 20 -6.7 13 -10.5 75 75 NW 14 22 30.19 1022 10 16.0934 0 0
1:35 am 01:35 Clear 20 -6.7 13 -10.5 75 75 WNW 14 22 30.19 1022 10 16.0934 0 0
1:55 am 01:55 Clear 20 -6.8 13 -10.7 74 74 WNW 14 22 30.2 1023 10 16.0934 0 0
2:15 am 02:15 Clear 20 -6.5 13 -10.5 74 74 NW 14 22 30.19 1022 10 16.0934 0 0
2:35 am 02:35 Clear 20 -6.6 13 -10.5 74 74 NW 14 22 30.19 1022 10 16.0934 0 0
2:55 am 02:55 Clear 20 -6.4 13 -10.6 72 72 WNW 14 22 30.19 1022 10 16.0934 0 0
3:15 am 03:15 Clear 21 -6.1 13 -10.6 71 71 WNW 16 26 30.2 1023 10 16.0934 0 0
3:35 am 03:35 Clear 20 -6.4 13 -10.7 72 72 WNW 17 28 30.2 1023 10 16.0934 0 0
3:55 am 03:55 Clear 20 -6.6 12 -11 71 71 WNW 17 28 30.2 1023 10 16.0934 0 0
4:15 am 04:15 Clear 19 -7 12 -11 73 73 WNW 12 19 30.2 1023 10 16.0934 0 0
4:35 am 04:35 Clear 19 -7 12 -11 73 73 NW 13 20 30.2 1023 10 16.0934 0 0
4:55 am 04:55 Clear 19 -7.5 12 -11.2 75 75 WNW 13 20 30.2 1023 10 16.0934 0 0
5:15 am 05:15 Clear 18 -8 11 -11.5 76 76 NW 10 17 30.21 1023 10 16.0934 0 0
5:35 am 05:35 Clear 17 -8.6 11 -11.7 79 79 WNW 10 17 30.22 1023 10 16.0934 0 0
5:55 am 05:55 Clear 16 -8.8 10 -12 78 78 WNW 14 22 30.22 1023 10 16.0934 0 0
6:15 am 06:15 Clear 16 -8.7 11 -11.8 79 79 WNW 13 20 30.22 1023 10 16.0934 0 0
6:35 am 06:35 Clear 15 -9.3 10 -12.1 80 80 WNW 12 19 30.22 1023 10 16.0934 0 0
6:55 am 06:55 Clear 14 -9.8 10 -12.3 82 82 WNW 9 15 30.23 1024 10 16.0934 0 0
7:15 am 07:15 Clear 14 -10 10 -12.4 83 83 NW 5 7 30.24 1024 10 16.0934 0 0
7:35 am 07:35 Clear 15 -9.6 10 -12.1 82 82 NW 6 9 30.23 1024 10 16.0934 0 0
7:55 am 07:55 Clear 14 -9.8 10 -12.3 82 82 NW 8 13 30.23 1024 10 16.0934 0 0
8:15 am 08:15 Sunny 14 -9.8 10 -12.4 82 82 NW 9 15 30.23 1024 10 16.0934 0 0
8:35 am 08:35 Sunny 16 -8.8 11 -11.9 79 79 WNW 13 20 30.23 1024 10 16.0934 0 0
8:55 am 08:55 Sunny 15 -9.2 10 -12 80 80 WNW 10 17 30.23 1024 10 16.0934 0 0
9:15 am 09:15 Sunny 16 -8.8 11 -11.9 79 79 WNW 10 17 30.23 1024 10 16.0934 0 0
9:35 am 09:35 Sunny 17 -8.3 11 -11.7 77 77 NW 8 13 30.23 1024 10 16.0934 0 0
9:55 am 09:55 Sunny 19 -7.5 12 -11.1 76 76 WNW 10 17 30.22 1023 10 16.0934 0 0
10:15 am 10:15 Sunny 19 -7.2 12 -11 75 75 WNW 9 15 30.22 1023 10 16.0934 0 0
10:35 am 10:35 Sunny 20 -6.8 13 -10.6 75 75 W 8 13 30.23 1024 10 16.0934 0 0
10:55 am 10:55 Sunny 21 -6.2 14 -10 75 75 WNW 7 11 30.22 1023 10 16.0934 0 0
11:15 am 11:15 Sunny 22 -5.8 15 -9.4 76 76 WNW 5 7 30.21 1023 10 16.0934 0 0
11:35 am 11:35 Sunny 23 -5.1 15 -9.2 73 73 WNW 6 9 30.19 1022 10 16.0934 0 0
11:55 am 11:55 Sunny 24 -4.3 17 -8.6 72 72 WNW 6 9 30.17 1022 10 16.0934 0 0
12:15 pm 12:15 Sunny 26 -3.6 18 -7.8 73 73 W 3 6 30.16 1021 10 16.0934 0 0
12:35 pm 12:35 Sunny 27 -3 19 -7 74 74 W 3 6 30.14 1021 10 16.0934 0 0
12:55 pm 12:55 Sunny 29 -1.4 20 -6.8 67 67 W 3 6 30.1 1019 10 16.0934 0 0
1:15 pm 13:15 Sunny 30 -1.2 20 -6.4 68 68 W 5 7 30.1 1019 10 16.0934 0 0
1:35 pm 13:35 Sunny 30 -1 20 -6.5 67 67 Calm 30.08 1019 10 16.0934 0 0
1:55 pm 13:55 Sunny 31 -0.7 21 -6.3 66 66 SW 5 7 30.06 1018 10 16.0934 0 0
2:15 pm 14:15 Sunny 31 -0.5 22 -5.7 68 68 WSW 3 6 30.05 1018 10 16.0934 0 0
2:35 pm 14:35 Sunny 31 -0.3 22 -5.7 67 67 WSW 7 11 30.05 1018 10 16.0934 0 0
2:55 pm 14:55 Sunny 31 -0.5 22 -5.6 69 69 WSW 5 7 30.04 1017 10 16.0934 0 0
3:15 pm 15:15 Sunny 32 -0.2 22 -5.5 68 68 WSW 6 9 30.04 1017 10 16.0934 0 0
3:35 pm 15:35 Sunny 32 -0.1 22 -5.7 66 66 WSW 6 9 30.03 1017 10 16.0934 0 0
3:55 pm 15:55 Sunny 31 -0.3 22 -5.4 69 69 SW 7 11 30.02 1017 10 16.0934 0 0
4:15 pm 16:15 Sunny 32 -0.2 22 -5.7 67 67 SW 7 11 30.02 1017 10 16.0934 0 0
4:35 pm 16:35 Sunny 29 -1.4 22 -5.8 72 72 SW 7 11 30.03 1017 10 16.0934 0 0
4:55 pm 16:55 Sunny 28 -2 21 -6.1 74 74 SW 8 13 30.03 1017 10 16.0934 0 0
5:15 pm 17:15 Sunny 28 -2.3 20 -6.5 73 73 SW 7 11 30.02 1017 10 16.0934 0 0
5:35 pm 17:35 Clear 26 -3.2 19 -7.1 75 75 SW 5 7 30.03 1017 10 16.0934 0 0
5:55 pm 17:55 Clear 25 -4.1 20 -6.9 81 81 SW 5 7 30.04 1017 10 16.0934 0 0
6:15 pm 18:15 Clear 24 -4.4 19 -7 82 82 WSW 5 7 30.03 1017 10 16.0934 0 0
6:35 pm 18:35 Clear 21 -6.1 18 -8 87 87 Calm 30.04 1017 10 16.0934 0 0
6:55 pm 18:55 Clear 21 -6.2 18 -8 87 87 SW 5 7 30.04 1017 10 16.0934 0 0
7:15 pm 19:15 Clear 19 -7.3 16 -8.9 88 88 SW 7 11 30.05 1018 10 16.0934 0 0
7:35 pm 19:35 Clear 20 -6.8 17 -8.6 87 87 SW 5 7 30.04 1017 10 16.0934 0 0
7:55 pm 19:55 Clear 19 -7.4 17 -8.6 91 91 Calm 30.03 1017 10 16.0934 0 0
8:15 pm 20:15 Clear 18 -7.8 16 -8.9 92 92 Calm 30.03 1017 10 16.0934 0 0
8:35 pm 20:35 Clear 17 -8.6 15 -9.7 92 92 Calm 30.03 1017 10 16.0934 0 0
8:55 pm 20:55 Clear 15 -9.6 13 -10.5 93 93 Calm 30.05 1017 10 16.0934 0 0
9:15 pm 21:15 Clear 15 -9.7 13 -10.5 94 94 Calm 30.04 1017 10 16.0934 0 0
9:35 pm 21:35 Clear 14 -10.1 13 -10.8 95 95 Calm 30.03 1017 10 16.0934 0 0
9:55 pm 21:55 Clear 13 -10.7 11 -11.5 94 94 Calm 30.03 1017 10 16.0934 0 0
10:15 pm 22:15 Clear 12 -11.2 10 -12.2 92 92 Calm 30.03 1017 10 16.0934 0 0
10:35 pm 22:35 Clear 12 -11 11 -11.8 94 94 N 3 6 30.02 1017 10 16.0934 0 0
10:55 pm 22:55 Clear 12 -11.1 11 -11.9 94 94 NNE 3 6 30.02 1017 10 16.0934 0 0
11:15 pm 23:15 Clear 12 -11.2 10 -12 94 94 Calm 30.01 1016 10 16.0934 0 0
11:35 pm 23:35 Clear 12 -10.9 10 -12.1 91 91 Calm 29.99 1016 10 16.0934 0 0
11:55 pm 23:55 Clear 16 -8.8 13 -10.7 86 86 W 8 13 29.97 1015 10 16.0934 0 0

Powered by AerisWeather